Back to catalog

FENGYUN 1C DEB

AliveSSO
NORAD 30668·DEBRIS·🇨🇳 China

Launched May 10, 1999 from Taiyuan Satellite Launch Center

Loading…

Next Passes (next 24 hours)

TLE

FreshSource: Space-Track

Epoch: Sep 13, 2026, 17:50 UTC

1 30668U 99025AQA 26256.74374845  .00001754  00000-0  92308-3 0  9993
2 30668  99.1199 340.0822 0080208 192.3826 299.8378 14.13742386999395

Track FENGYUN 1C DEB in real time with AllMySat

Download on the App Store